Location: Nelson
(41.2830°S, 173.2830°E)
Time: 19:16:24
(UTC+13:00)

Cosmos 540 Rocket - Pass Details

Date: 24 January 2019
Orbit: 741 x 753 km, 74.1° (Epoch: 21 February)

Event Time Altitude Azimuth Distance (km) Brightness Sun altitude
Rises 22:08:30 0° 194° (SSW) 3,243 7.7 -12.3°
Reaches altitude 10° 22:11:01 10° 186° (S) 2,310 6.7 -12.7°
Maximum altitude 22:15:59 42° 115° (ESE) 1,080 4.1 -13.4°
Enters shadow 22:19:07 20° 55° (NE) 1,678 4.6 -13.8°
